Location: Aalen
(48.8330°N, 10.1000°E)
Time: 02:12:36
(UTC+02:00)

O/OREOS (USA 219) - Pass Details

Date: 01 April 2023
Orbit: 621 x 646 km, 72.0° (Epoch: 22 May)

Event Time Altitude Azimuth Distance (km) Brightness Sun altitude
Exits shadow 05:50:11 - 196° (SSW) 2,781 ? -11.7°
Reaches altitude 10° 05:52:04 10° 193° (SSW) 2,033 ? -11.4°
Maximum altitude 05:56:36 65° 113° (ESE) 707 ? -10.7°
Drops below altitude 10° 06:01:07 10° 32° (NNE) 2,034 ? -10.0°
Sets 06:03:24 0° 29° (NNE) 2,943 ? -9.6°
